Regional Weather Roundup
Issued by NWS

Home | Current Version | Previous Version | Graphics & Text | Print | Product List | Glossary On
Versions: 1 2 3 4 5 6 7 8 9 10 11 12 13 14 15 16 17 18 19 20 21 22 23 24 25 26 27 28 29 30 31 32 33 34 35 36 37 38 39 40 41 42 43 44 45 46 47 48 49 50
000
ASUS43 KDTX 040610
RWRMI
MICHIGAN HOURLY REGIONAL WEATHER ROUNDUP
NATIONAL WEATHER SERVICE DETROIT/PONTIAC MI
200 AM EDT TUE AUG 04 2015

NOTE: "FAIR" INDICATES FEW OR NO CLOUDS BELOW 12,000 FEET WITH NO
SIGNIFICANT WEATHER AND/OR OBSTRUCTION TO VISIBILITY.

MIZ047>049-052>055-059>063-066>070-074>076-081>083-040700-
SOUTHEAST LOWER MICHIGAN

CITY           SKY/WX    TMP DP  RH WIND       PRES   REMARKS
ADRIAN         CLEAR     60  53  77 NW5       29.90S
6HR MIN TEMP:  60; 6HR MAX TEMP:  73;

ALMA           CLOUDY    63  56  78 W3        29.88S
ANN ARBOR      PTCLDY    54  51  90 SW3       29.89R
BAD AXE        MOCLDY    59  55  88 CALM      29.85R
CARO           PTCLDY    58  56  93 CALM      29.86R
DETROIT CITY   CLEAR     65  52  62 W5        29.87R
6HR MIN TEMP:  65; 6HR MAX TEMP:  77;

DETROIT        PTCLDY    63  53  70 W6        29.88R
6HR MIN TEMP:  63; 6HR MAX TEMP:  78;

FLINT          FAIR      62  53  72 W6        29.87S
6HR MIN TEMP:  60; 6HR MAX TEMP:  75;

GROSSE ILE     CLEAR     64  54  68 W3        29.87S
HILLSDALE      CLEAR     59  54  83 CALM      29.91S
6HR MIN TEMP:  58; 6HR MAX TEMP:  72;

HOWELL         PTCLDY    59  53  80 W7        29.88S
6HR MIN TEMP:  58; 6HR MAX TEMP:  72;


CITY           SKY/WX    TMP DP  RH WIND       PRES   REMARKS
JACKSON        CLEAR     57  54  89 W3        29.90S
6HR MIN TEMP:  57; 6HR MAX TEMP:  71;

LAMBERTVILLE   CLEAR     62  54  74 CALM      29.90S
6HR MIN TEMP:  61; 6HR MAX TEMP:  77;

LANSING        MOCLDY    63  53  70 W7        29.89S
6HR MIN TEMP:  62; 6HR MAX TEMP:  73;

LAPEER         FAIR      56  55  99 CALM      29.87R
MASON          MOCLDY    58  52  81 CALM      29.89S
MONROE         FAIR      59  55  85 CALM      29.88S
MT. CLEMENS    CLEAR     64  54  69 W8        29.84S
6HR MIN TEMP:  64; 6HR MAX TEMP:  73;

PONTIAC        PTCLDY    62  53  72 W5        29.87R
6HR MIN TEMP:  62; 6HR MAX TEMP:  74;

PORT HURON     PTCLDY    59  57  94 CALM      29.85S
TRI CITIES     MOCLDY    62  55  77 W8        29.87R
6HR MIN TEMP:  60; 6HR MAX TEMP:  73;

MIDLAND        CLOUDY    58  55  89 CALM      29.86S
6HR MIN TEMP:  56; 6HR MAX TEMP:  73;

TROY           CLEAR     66  53  62 W6        29.89R
SAGINAW HB     MOCLDY    63  55  77 W3        29.86R
$$
MIZ043>046-050>051-056>058-064>065-071>073-077>080-040700-
SOUTHWEST LOWER MICHIGAN

CITY           SKY/WX    TMP DP  RH WIND       PRES   REMARKS
BATTLE CREEK     N/A    N/A N/A N/A MISG      29.90S
BENTON HARBOR  CLEAR     60  57  89 CALM      29.89F
6HR MIN TEMP:  60; 6HR MAX TEMP:  74;

BIG RAPIDS     MOCLDY    61  56  84 CALM      29.87S
6HR MIN TEMP:  61; 6HR MAX TEMP:  70;

COLDWATER      CLEAR     57  53  85 CALM      29.91S
6HR MIN TEMP:  57; 6HR MAX TEMP:  72;

FREMONT        FAIR      60  58  94 SW3       29.87S
6HR MIN TEMP:  60; 6HR MAX TEMP:  71;

HOLLAND        PTCLDY    62  55  77 CALM      29.89S
6HR MIN TEMP:  62; 6HR MAX TEMP:  73;

GRAND RAPIDS   PTCLDY    64  52  64 SW6       29.88S
6HR MIN TEMP:  64; 6HR MAX TEMP:  74;

IONIA          FAIR      62  54  74 W5        29.87F
6HR MIN TEMP:  62; 6HR MAX TEMP:  73;

KALAMAZOO      PTCLDY    62  53  72 SW5       29.90S
6HR MIN TEMP:  60; 6HR MAX TEMP:  74;

LUDINGTON      PTCLDY    58  56  92 CALM      29.86F FOG
6HR MIN TEMP:  58; 6HR MAX TEMP:  73;

MARSHALL       PTCLDY    60  52  75 CALM      29.89F
MOUNT PLEASANT PTCLDY    62  54  74 CALM      29.86S
6HR MIN TEMP:  62; 6HR MAX TEMP:  74;

MUSKEGON       FAIR      67  59  75 W6        29.88S
6HR MIN TEMP:  65; 6HR MAX TEMP:  74;

SOUTH HAVEN    PTCLDY    60  56  85 CALM      29.89S
$$
MIZ016>042-040700-
NORTHERN LOWER MICHIGAN

CITY           SKY/WX    TMP DP  RH WIND       PRES   REMARKS
ALPENA         CLEAR     54  52  93 CALM      29.83S
6HR MIN TEMP:  54; 6HR MAX TEMP:  68; 6HR PCP: TRACE;

BEAVER ISLAND  PTCLDY    55  55  97 CALM      29.82F FOG
6HR MIN TEMP:  55; 6HR MAX TEMP:  64;

BELLAIRE       PTCLDY    56  55  95 CALM      29.84S
6HR MIN TEMP:  56; 6HR MAX TEMP:  66;

CADILLAC       CLEAR     53  51  95 CALM      29.86S
CHARLEVOIX     PTCLDY    58  56  94 SW5       29.86S
6HR MIN TEMP:  58; 6HR MAX TEMP:  65;

FRANKFORT      PTCLDY    55  54  95 CALM      29.85S
GAYLORD        CLEAR     56  56 100 W3        29.85S
6HR MIN TEMP:  55; 6HR MAX TEMP:  61; 6HR PCP: TRACE;

GRAYLING       PTCLDY    48  47  97 CALM      29.87R
6HR MIN TEMP:  48; 6HR MAX TEMP:  68;

HARBOR SPRINGS MOCLDY    57  56  95 CALM      29.83S
HOUGHTON LAKE  CLEAR     53  51  93 CALM      29.87S
6HR MIN TEMP:  52; 6HR MAX TEMP:  70;

MANISTEE       CLEAR     57  54  88 CALM      29.86S
OSCODA         PTCLDY    58  54  86 CALM      29.83S
PELLSTON       CLEAR     51  50  96 CALM      29.83S FOG
6HR MIN TEMP:  51; 6HR MAX TEMP:  65;

ROGERS CITY    CLEAR     56  55  96 SW5       29.83S
TRAVERSE CITY  PTCLDY    57  54  89 CALM      29.83S
6HR MIN TEMP:  56; 6HR MAX TEMP:  70;

$$
MIZ007>008-015-040700-
EASTERN UPPER MICHIGAN

CITY           SKY/WX    TMP DP  RH WIND       PRES   REMARKS
KINROSS        MOCLDY    54  54 100 W5        29.81R
6HR MIN TEMP:  54; 6HR MAX TEMP:  61;

MACKINAC ISLAN PTCLDY    59  53  81 W7        29.80F
NEWBERRY       CLOUDY    57  54  91 SW3       29.81S
6HR MIN TEMP:  57; 6HR MAX TEMP:  62;

S. S. MARIE    MOCLDY    57  53  86 W3        29.79S
6HR MIN TEMP:  56; 6HR MAX TEMP:  61; 6HR PCP: TRACE;

MUNISING         N/A     62  54  74 VRB3      29.81R
6HR MIN TEMP:  60; 6HR MAX TEMP:  66;

$$
MIZ004>006-011>014-085-040700-
CENTRAL UPPER MICHIGAN

CITY           SKY/WX    TMP DP  RH WIND       PRES   REMARKS
MANISTIQUE     LGT RAIN  59  57  94 W5G16     29.82R
ESCANABA       CLOUDY    59  55  88 W6        29.83S
6HR MIN TEMP:  59; 6HR MAX TEMP:  72;

MENOMINEE      CLOUDY    61  54  77 N5        29.84F
6HR MIN TEMP:  61; 6HR MAX TEMP:  72;

SAWYER-GWINN   CLOUDY    59  54  82 W5        29.83S
6HR MIN TEMP:  59; 6HR MAX TEMP:  67;

$$
MIZ001>003-009>011-084-040700-
WESTERN UPPER MICHIGAN

CITY           SKY/WX    TMP DP  RH WIND       PRES   REMARKS
IRON MOUNTAIN  MOCLDY    58  56  93 W5        29.85R
6HR MIN TEMP:  58; 6HR MAX TEMP:  69; 6HR PCP:  0.01;

HOUGHTON       LGT RAIN  57  54  89 NW9       29.83R
6HR MIN TEMP:  55; 6HR MAX TEMP:  65; 6HR PCP:  0.03;

COPPER HARBOR    N/A     60  56  86 N10       29.81R
6HR MIN TEMP:  59; 6HR MAX TEMP:  65;

IRONWOOD       MOCLDY    57  57 100 SW3       29.86S
6HR MIN TEMP:  57; 6HR MAX TEMP:  63;

$$

ABBREVIATIONS USED IN REMARKS
   TC - TEMPERATURE IN CELSIUS
  WCI - WIND CHILL INDEX
   HX - HEAT INDEX
  VSB - VISIBILITY



USA.gov is the U.S. government's official web portal to all federal, state and local government web resources and services.